[[{"header":{"parameterUnit":"m.s-1","parameterCategory":1,"la1":30.2992,"la2":30.254,"lo1":-89.0895,"lo2":-89.0443,"dy":0.0025,"dx":0.0025,"nx":19,"ny":19,"refTime":"2026-05-05T09:00:00:Z","depth":0,"parameterNumber":2,"parameterNumberName":"U-component_of_WINDS"},"data":[0,0,0,0.3885,0.3884,0.3825,0.3824,0.3753,0.3753,0,0,0,0,0,0,0,0,0,0,0,0.3908,0.3908,0.3885,0.3884,0.3825,0.3824,0.3754,0.3753,0,0,0,0,0,0,0,0,0,0,0,0.3908,0.3908,0.3908,0.3884,0.3825,0.3824,0.3754,0.3796,0,0,0,0,0,0,0,0,0,0,0.3852,0.388,0.3908,0.3908,0.3883,0.3825,0.3824,0.3798,0.3793,0.3783,0,0.3779,0,0.3765,0.3749,0.3749,0,0,0,0.3879,0.3884,0.3863,0.3908,0.3883,0.3825,0.385,0.3795,0.379,0.3777,0.3777,0.3775,0.3764,0.3748,0.3748,0.3713,0.3713,0,0,0.3882,0.39,0.3867,0.386,0.3873,0.3852,0.3848,0.3792,0.3792,0.3777,0.3773,0.3762,0.3748,0.3747,0.3713,0.3713,0,0,0,0.3895,0.3903,0.3883,0.3863,0.3853,0.385,0.3846,0.3795,0.3787,0.3772,0.3762,0.3748,0.3747,0.3713,0.3713,0.3735,0,0,0,0.3896,0.391,0.3885,0.3895,0.3854,0.3824,0.385,0.3791,0.3784,0.3762,0.3748,0.3746,0.3712,0.3713,0.3734,0.3742,0,0,0,0.391,0.3912,0.3906,0.3896,0.3872,0.3824,0.3813,0.3789,0.3778,0.3749,0.3746,0.3712,0.3713,0.3734,0.3741,0.3738,0,0,0,0.3929,0.3926,0.3906,0.3897,0.3873,0.3839,0.3813,0.3787,0.3764,0.3747,0.3712,0.3713,0.3733,0.374,0.3738,0.374,0.3742,0,0,0.3935,0.3927,0.392,0.3901,0.3876,0.3847,0.3824,0.3785,0.3763,0.373,0.3729,0.3735,0.3741,0.3738,0.375,0.3753,0,0,0,0.3928,0.3924,0.3913,0.3894,0.3865,0.384,0.3802,0.3787,0.3758,0.3751,0.3732,0.3735,0.3733,0.3733,0.3735,0.3731,0.3713,0.3713,0.3713,0.3962,0.3937,0.3924,0.3891,0.3872,0.3833,0.3814,0.3787,0.3766,0.3762,0.3752,0.3763,0.3763,0.3765,0.3761,0.3751,0.3751,0.3751,0.3751,0.3967,0.3957,0.3929,0.3907,0.3879,0.3858,0.3819,0.3805,0.378,0.3768,0.3765,0.3754,0.3768,0.3763,0.3752,0.3752,0.3752,0.3752,0.3752,0.3987,0.3978,0.396,0.3929,0.3906,0.3872,0.385,0.3824,0.38,0.3796,0.3782,0.3782,0.3778,0.3791,0.3791,0.3791,0.3791,0.3791,0.3792,0.4014,0.3994,0.398,0.3949,0.3932,0.3907,0.3866,0.3848,0.3821,0.3804,0.3803,0.3782,0.3775,0.3773,0.3792,0.3792,0.3792,0.3792,0.3792,0.403,0.4022,0.4,0.3984,0.3943,0.3922,0.389,0.3854,0.3835,0.3825,0.3803,0.3802,0.3792,0.379,0.3789,0.381,0.381,0.381,0.381,0.4046,0.4039,0.401,0.3985,0.3957,0.3926,0.3898,0.3866,0.383,0.3816,0.3809,0.3805,0.3804,0.3794,0.3792,0.379,0.3811,0.3811,0.3811,0.4054,0.4042,0.4026,0.3993,0.3959,0.393,0.3903,0.3872,0.383,0.3811,0.3804,0.3804,0.3797,0.3796,0.3778,0.3776,0.3772,0,0]},{"header":{"parameterUnit":"m.s-1","parameterCategory":1,"la1":30.2992,"la2":30.254,"lo1":-89.0895,"lo2":-89.0443,"dy":0.0025,"dx":0.0025,"nx":19,"ny":19,"refTime":"2026-05-05T09:00:00:Z","depth":0,"parameterNumber":3,"parameterNumberName":"V-component_of_WINDS"},"data":[0,0,0,5.9918,5.9919,5.9931,5.9931,5.9953,5.9953,0,0,0,0,0,0,0,0,0,0,0,5.9919,5.9919,5.9918,5.9919,5.9931,5.9931,5.9953,5.9953,0,0,0,0,0,0,0,0,0,0,0,5.9918,5.9919,5.9919,5.9919,5.9931,5.9931,5.9952,5.9941,0,0,0,0,0,0,0,0,0,0,5.9928,5.9932,5.9919,5.9919,5.9919,5.9931,5.9931,5.994,5.9942,5.995,0,5.9958,0,5.9956,5.9955,5.9955,0,0,0,5.9916,5.9931,5.9931,5.9919,5.9919,5.9931,5.9925,5.9941,5.9943,5.9951,5.9958,5.9959,5.9956,5.9955,5.9955,6.001,6.0011,0,0,5.9915,5.9923,5.993,5.9932,5.9931,5.9924,5.9925,5.9942,5.9949,5.9958,5.9959,5.9956,5.9955,5.9955,6.001,6.001,0,0,0,5.9915,5.9922,5.9922,5.9931,5.9933,5.9925,5.9926,5.9949,5.9948,5.9959,5.9957,5.9955,5.9955,6.0009,6.001,6.0036,0,0,0,5.9915,5.9922,5.9922,5.9926,5.9933,5.9941,5.9932,5.9947,5.9948,5.9957,5.9955,5.9956,6.0009,6.001,6.0035,6.0048,0,0,0,5.9916,5.9922,5.9926,5.9927,5.9932,5.9941,5.9941,5.9947,5.9947,5.9955,5.9956,6.0009,6.001,6.0033,6.0045,6.0064,0,0,0,5.992,5.9949,5.9926,5.9957,5.9932,5.9957,5.994,5.9959,5.9969,5.9955,6.0009,6.001,6.0033,6.0044,6.0063,6.0081,6.009,0,0,5.996,5.9954,5.9972,5.9952,5.9983,5.9955,5.9989,5.9991,5.9985,6.0002,6.0003,6.0035,6.0045,6.0064,6.0136,6.0143,0,0,0,5.9987,5.9999,6.0006,6.0016,6.0018,6.0021,6.0017,6.0018,6.0032,5.9996,6.0047,6.0053,6.0064,6.0072,6.0078,6.0086,6.0014,6.0014,6.0014,6.0054,6.0045,6.0073,6.0066,6.0075,6.0071,6.0078,6.0078,6.0066,6.0078,6.0083,6.0128,6.0138,6.0143,6.0152,6.0093,6.0093,6.0093,6.0093,6.0111,6.0128,6.0111,6.0133,6.0123,6.0141,6.0138,6.0129,6.0144,6.0124,6.0133,6.0111,6.015,6.0158,6.0095,6.0094,6.0094,6.0094,6.0094,6.0154,6.016,6.0161,6.0174,6.0186,6.0177,6.0192,6.0183,6.0174,6.0183,6.0187,6.0187,6.0185,6.0186,6.0186,6.0186,6.0186,6.0186,6.0186,6.0198,6.0198,6.0212,6.0217,6.0222,6.0228,6.0224,6.0229,6.0231,6.0223,6.0223,6.021,6.0156,6.0143,6.0189,6.0188,6.0188,6.0188,6.0188,6.0259,6.0244,6.0266,6.0271,6.0276,6.0288,6.0276,6.0286,6.0289,6.0297,6.0282,6.0244,6.0236,6.0232,6.022,6.0284,6.0284,6.0284,6.0284,6.0295,6.029,6.031,6.0319,6.0327,6.0318,6.0343,6.0341,6.0336,6.0337,6.0326,6.0311,6.0306,6.0301,6.0295,6.0285,6.0363,6.0363,6.0363,6.0331,6.0327,6.035,6.0345,6.0349,6.0352,6.0375,6.0386,6.0377,6.0366,6.0337,6.0334,6.0309,6.0301,6.0289,6.0279,6.0259,0,0]}]]